Year,Month,Day,Hour,Minute,Value (Times are PST for temperature in C)
2016,05,08,00,00,12.30
2016,05,08,00,01,12.30
2016,05,08,00,02,12.30
2016,05,08,00,03,12.20
2016,05,08,00,04,12.20
2016,05,08,00,05,12.20
2016,05,08,00,06,12.20
2016,05,08,00,07,12.20
2016,05,08,00,08,12.20
2016,05,08,00,09,12.20
2016,05,08,00,10,12.20
2016,05,08,00,11,12.20
2016,05,08,00,12,12.10
2016,05,08,00,13,12.10
2016,05,08,00,14,12.10
2016,05,08,00,15,12.10
2016,05,08,00,16,12.10
2016,05,08,00,17,12.10
2016,05,08,00,18,12.10
2016,05,08,00,19,12.10
2016,05,08,00,20,12.10
2016,05,08,00,21,12.10
2016,05,08,00,22,12.00
2016,05,08,00,23,12.00
2016,05,08,00,24,11.90
2016,05,08,00,25,11.90
2016,05,08,00,26,11.90
2016,05,08,00,27,11.90
2016,05,08,00,28,11.90
2016,05,08,00,29,11.90
2016,05,08,00,30,11.90
2016,05,08,00,31,11.90
2016,05,08,00,32,11.90
2016,05,08,00,33,11.90
2016,05,08,00,34,11.90
2016,05,08,00,35,11.90
2016,05,08,00,36,11.90
2016,05,08,00,37,11.90
2016,05,08,00,38,11.90
2016,05,08,00,39,11.90
2016,05,08,00,40,11.90
2016,05,08,00,41,11.90
2016,05,08,00,42,11.90
2016,05,08,00,43,11.90
2016,05,08,00,44,11.90
2016,05,08,00,45,11.90
2016,05,08,00,46,11.90
2016,05,08,00,47,11.90
2016,05,08,00,48,11.90
2016,05,08,00,49,11.80
2016,05,08,00,50,11.80
2016,05,08,00,51,11.80
2016,05,08,00,52,11.80
2016,05,08,00,53,11.70
2016,05,08,00,54,11.70
2016,05,08,00,55,11.70
2016,05,08,00,56,11.70
2016,05,08,00,57,11.70
2016,05,08,00,58,11.70
2016,05,08,00,59,11.70
2016,05,08,01,00,11.70
2016,05,08,01,01,11.60
2016,05,08,01,02,11.60
2016,05,08,01,03,11.70
2016,05,08,01,04,11.70
2016,05,08,01,05,11.70
2016,05,08,01,06,11.70
2016,05,08,01,07,11.70
2016,05,08,01,08,11.70
2016,05,08,01,09,11.70
2016,05,08,01,10,11.70
2016,05,08,01,11,11.70
2016,05,08,01,12,11.80
2016,05,08,01,13,11.80
2016,05,08,01,14,11.80
2016,05,08,01,15,11.80
2016,05,08,01,16,11.80
2016,05,08,01,17,11.80
2016,05,08,01,18,11.80
2016,05,08,01,19,11.80
2016,05,08,01,20,11.80
2016,05,08,01,21,11.80
2016,05,08,01,22,11.80
2016,05,08,01,23,11.80
2016,05,08,01,24,11.80
2016,05,08,01,25,11.80
2016,05,08,01,26,11.80
2016,05,08,01,27,11.80
2016,05,08,01,28,11.80
2016,05,08,01,29,11.80
2016,05,08,01,30,11.80
2016,05,08,01,31,11.80
2016,05,08,01,32,11.80
2016,05,08,01,33,11.80
2016,05,08,01,34,11.80
2016,05,08,01,35,11.80
2016,05,08,01,36,11.80
2016,05,08,01,37,11.80
2016,05,08,01,38,11.80
2016,05,08,01,39,11.80
2016,05,08,01,40,11.80
2016,05,08,01,41,11.80
2016,05,08,01,42,11.80
2016,05,08,01,43,11.80
2016,05,08,01,44,11.70
2016,05,08,01,45,11.70
2016,05,08,01,46,11.70
2016,05,08,01,47,11.70
2016,05,08,01,48,11.70
2016,05,08,01,49,11.70
2016,05,08,01,50,11.60
2016,05,08,01,51,11.60
2016,05,08,01,52,11.60
2016,05,08,01,53,11.60
2016,05,08,01,54,11.60
2016,05,08,01,55,11.60
2016,05,08,01,56,11.60
2016,05,08,01,57,11.60
2016,05,08,01,58,11.60
2016,05,08,01,59,11.60
2016,05,08,02,00,11.60
2016,05,08,02,01,11.50
2016,05,08,02,02,11.50
2016,05,08,02,03,11.50
2016,05,08,02,04,11.50
2016,05,08,02,05,11.40
2016,05,08,02,06,11.40
2016,05,08,02,07,11.40
2016,05,08,02,08,11.40
2016,05,08,02,09,11.40
2016,05,08,02,10,11.40
2016,05,08,02,11,11.40
2016,05,08,02,12,11.40
2016,05,08,02,13,11.40
2016,05,08,02,14,11.40
2016,05,08,02,15,11.30
2016,05,08,02,16,11.30
2016,05,08,02,17,11.30
2016,05,08,02,18,11.30
2016,05,08,02,19,11.30
2016,05,08,02,20,11.20
2016,05,08,02,21,11.20
2016,05,08,02,22,11.20
2016,05,08,02,23,11.20
2016,05,08,02,24,11.10
2016,05,08,02,25,11.10
2016,05,08,02,26,11.10
2016,05,08,02,27,11.10
2016,05,08,02,28,11.10
2016,05,08,02,29,11.10
2016,05,08,02,30,11.00
2016,05,08,02,31,11.00
2016,05,08,02,32,11.00
2016,05,08,02,33,11.00
2016,05,08,02,34,11.00
2016,05,08,02,35,11.00
2016,05,08,02,36,11.00
2016,05,08,02,37,11.00
2016,05,08,02,38,10.90
2016,05,08,02,39,10.90
2016,05,08,02,40,10.90
2016,05,08,02,41,10.90
2016,05,08,02,42,10.90
2016,05,08,02,43,10.80
2016,05,08,02,44,10.80
2016,05,08,02,45,10.80
2016,05,08,02,46,10.80
2016,05,08,02,47,10.80
2016,05,08,02,48,10.80
2016,05,08,02,49,10.70
2016,05,08,02,50,10.70
2016,05,08,02,51,10.70
2016,05,08,02,52,10.70
2016,05,08,02,53,10.70
2016,05,08,02,54,10.70
2016,05,08,02,55,10.60
2016,05,08,02,56,10.60
2016,05,08,02,57,10.60
2016,05,08,02,58,10.60
2016,05,08,02,59,10.60
2016,05,08,03,00,10.60
2016,05,08,03,01,10.60
2016,05,08,03,02,10.60
2016,05,08,03,03,10.60
2016,05,08,03,04,10.60
2016,05,08,03,05,10.60
2016,05,08,03,06,10.60
2016,05,08,03,07,10.60
2016,05,08,03,08,10.60
2016,05,08,03,09,10.60
2016,05,08,03,10,10.60
2016,05,08,03,11,10.60
2016,05,08,03,12,10.60
2016,05,08,03,13,10.60
2016,05,08,03,14,10.60
2016,05,08,03,15,10.50
2016,05,08,03,16,10.50
2016,05,08,03,17,10.50
2016,05,08,03,18,10.50
2016,05,08,03,19,10.40
2016,05,08,03,20,10.40
2016,05,08,03,21,10.40
2016,05,08,03,22,10.40
2016,05,08,03,23,10.30
2016,05,08,03,24,10.30
2016,05,08,03,25,10.30
2016,05,08,03,26,10.30
2016,05,08,03,27,10.30
2016,05,08,03,28,10.20
2016,05,08,03,29,10.20
2016,05,08,03,30,10.20
2016,05,08,03,31,10.20
2016,05,08,03,32,10.20
2016,05,08,03,33,10.20
2016,05,08,03,34,10.20
2016,05,08,03,35,10.20
2016,05,08,03,36,10.20
2016,05,08,03,37,10.20
2016,05,08,03,38,10.20
2016,05,08,03,39,10.20
2016,05,08,03,40,10.20
2016,05,08,03,41,10.20
2016,05,08,03,42,10.20
2016,05,08,03,43,10.10
2016,05,08,03,44,10.10
2016,05,08,03,45,10.10
2016,05,08,03,46,10.10
2016,05,08,03,47,10.10
2016,05,08,03,48,10.10
2016,05,08,03,49,10.10
2016,05,08,03,50,10.10
2016,05,08,03,51,10.00
2016,05,08,03,52,10.00
2016,05,08,03,53,10.00
2016,05,08,03,54,10.00
2016,05,08,03,55,9.90
2016,05,08,03,56,9.90
2016,05,08,03,57,9.80
2016,05,08,03,58,9.80
2016,05,08,03,59,9.80
2016,05,08,04,00,9.70
2016,05,08,04,01,9.70
2016,05,08,04,02,9.60
2016,05,08,04,03,9.60
2016,05,08,04,04,9.60
2016,05,08,04,05,9.50
2016,05,08,04,06,9.50
2016,05,08,04,07,9.40
2016,05,08,04,08,9.40
2016,05,08,04,09,9.40
2016,05,08,04,10,9.40
2016,05,08,04,11,9.40
2016,05,08,04,12,9.40
2016,05,08,04,13,9.40
2016,05,08,04,14,9.40
2016,05,08,04,15,9.40
2016,05,08,04,16,9.30
2016,05,08,04,17,9.30
2016,05,08,04,18,9.30
2016,05,08,04,19,9.30
2016,05,08,04,20,9.30
2016,05,08,04,21,9.20
2016,05,08,04,22,9.20
2016,05,08,04,23,9.10
2016,05,08,04,24,9.10
2016,05,08,04,25,9.10
2016,05,08,04,26,9.00
2016,05,08,04,27,9.00
2016,05,08,04,28,8.90
2016,05,08,04,29,8.90
2016,05,08,04,30,8.90
2016,05,08,04,31,8.90
2016,05,08,04,32,8.90
2016,05,08,04,33,8.90
2016,05,08,04,34,8.90
2016,05,08,04,35,8.90
2016,05,08,04,36,8.90
2016,05,08,04,37,8.90
2016,05,08,04,38,8.90
2016,05,08,04,39,8.80
2016,05,08,04,40,8.80
2016,05,08,04,41,8.90
2016,05,08,04,42,8.90
2016,05,08,04,43,8.80
2016,05,08,04,44,8.80
2016,05,08,04,45,8.90
2016,05,08,04,46,8.90
2016,05,08,04,47,8.90
2016,05,08,04,48,8.90
2016,05,08,04,49,8.90
2016,05,08,04,50,9.00
2016,05,08,04,51,8.90
2016,05,08,04,52,8.90
2016,05,08,04,53,9.00
2016,05,08,04,54,9.00
2016,05,08,04,55,9.00
2016,05,08,04,56,9.10
2016,05,08,04,57,9.10
2016,05,08,04,58,9.10
2016,05,08,04,59,9.10
2016,05,08,05,00,9.10
2016,05,08,05,01,9.20
2016,05,08,05,02,9.20
2016,05,08,05,03,9.20
2016,05,08,05,04,9.20
2016,05,08,05,05,9.30
2016,05,08,05,06,9.30
2016,05,08,05,07,9.30
2016,05,08,05,08,9.30
2016,05,08,05,09,9.30
2016,05,08,05,10,9.30
2016,05,08,05,11,9.30
2016,05,08,05,12,9.30
2016,05,08,05,13,9.30
2016,05,08,05,14,9.30
2016,05,08,05,15,9.30
2016,05,08,05,16,9.30
2016,05,08,05,17,9.30
2016,05,08,05,18,9.30
2016,05,08,05,19,9.30
2016,05,08,05,20,9.30
2016,05,08,05,21,9.30
2016,05,08,05,22,9.20
2016,05,08,05,23,9.20
2016,05,08,05,24,9.20
2016,05,08,05,25,9.20
2016,05,08,05,26,9.20
2016,05,08,05,27,9.20
2016,05,08,05,28,9.20
2016,05,08,05,29,9.20
2016,05,08,05,30,9.20
2016,05,08,05,31,9.10
2016,05,08,05,32,9.10
2016,05,08,05,33,9.10
2016,05,08,05,34,9.10
2016,05,08,05,35,9.10
2016,05,08,05,36,9.10
2016,05,08,05,37,9.00
2016,05,08,05,38,9.00
2016,05,08,05,39,9.00
2016,05,08,05,40,9.00
2016,05,08,05,41,9.00
2016,05,08,05,42,9.00
2016,05,08,05,43,9.00
2016,05,08,05,44,8.90
2016,05,08,05,45,8.90
2016,05,08,05,46,8.80
2016,05,08,05,47,8.80
2016,05,08,05,48,8.80
2016,05,08,05,49,8.80
2016,05,08,05,50,8.80
2016,05,08,05,51,8.80
2016,05,08,05,52,8.80
2016,05,08,05,53,8.80
2016,05,08,05,54,8.80
2016,05,08,05,55,8.80
2016,05,08,05,56,8.80
2016,05,08,05,57,8.80
2016,05,08,05,58,8.80
2016,05,08,05,59,8.80
2016,05,08,06,00,8.80
2016,05,08,06,01,8.90
2016,05,08,06,02,8.90
2016,05,08,06,03,8.90
2016,05,08,06,04,9.00
2016,05,08,06,05,9.00
2016,05,08,06,06,9.00
2016,05,08,06,07,9.00
2016,05,08,06,08,9.00
2016,05,08,06,09,9.00
2016,05,08,06,10,9.00
2016,05,08,06,11,9.00
2016,05,08,06,12,9.00
2016,05,08,06,13,9.10
2016,05,08,06,14,9.10
2016,05,08,06,15,9.10
2016,05,08,06,16,9.10
2016,05,08,06,17,9.20
2016,05,08,06,18,9.20
2016,05,08,06,19,9.20
2016,05,08,06,20,9.20
2016,05,08,06,21,9.20
2016,05,08,06,22,9.30
2016,05,08,06,23,9.30
2016,05,08,06,24,9.30
2016,05,08,06,25,9.40
2016,05,08,06,26,9.40
2016,05,08,06,27,9.40
2016,05,08,06,28,9.40
2016,05,08,06,29,9.40
2016,05,08,06,30,9.40
2016,05,08,06,31,9.40
2016,05,08,06,32,9.40
2016,05,08,06,33,9.40
2016,05,08,06,34,9.40
2016,05,08,06,35,9.40
2016,05,08,06,36,9.40
2016,05,08,06,37,9.50
2016,05,08,06,38,9.60
2016,05,08,06,39,9.60
2016,05,08,06,40,9.60
2016,05,08,06,41,9.60
2016,05,08,06,42,9.60
2016,05,08,06,43,9.60
2016,05,08,06,44,9.70
2016,05,08,06,45,9.70
2016,05,08,06,46,9.60
2016,05,08,06,47,9.60
2016,05,08,06,48,9.60
2016,05,08,06,49,9.60
2016,05,08,06,50,9.60
2016,05,08,06,51,9.60
2016,05,08,06,52,9.60
2016,05,08,06,53,9.60
2016,05,08,06,54,9.60
2016,05,08,06,55,9.60
2016,05,08,06,56,9.60
2016,05,08,06,57,9.60
2016,05,08,06,58,9.60
2016,05,08,06,59,9.60
2016,05,08,07,00,9.50
2016,05,08,07,01,9.50
2016,05,08,07,02,9.40
2016,05,08,07,03,9.40
2016,05,08,07,04,9.40
2016,05,08,07,05,9.40
2016,05,08,07,06,9.30
2016,05,08,07,07,9.30
2016,05,08,07,08,9.30
2016,05,08,07,09,9.30
2016,05,08,07,10,9.30
2016,05,08,07,11,9.30
2016,05,08,07,12,9.20
2016,05,08,07,13,9.20
2016,05,08,07,14,9.20
2016,05,08,07,15,9.20
2016,05,08,07,16,9.10
2016,05,08,07,17,9.10
2016,05,08,07,18,9.10
2016,05,08,07,19,9.10
2016,05,08,07,20,9.00
2016,05,08,07,21,9.10
2016,05,08,07,22,9.10
2016,05,08,07,23,9.20
2016,05,08,07,24,9.20
2016,05,08,07,25,9.30
2016,05,08,07,26,9.40
2016,05,08,07,27,9.50
2016,05,08,07,28,9.60
2016,05,08,07,29,9.60
2016,05,08,07,30,9.70
2016,05,08,07,31,9.70
2016,05,08,07,32,9.70
2016,05,08,07,33,9.70
2016,05,08,07,34,9.70
2016,05,08,07,35,9.70
2016,05,08,07,36,9.80
2016,05,08,07,37,9.80
2016,05,08,07,38,9.90
2016,05,08,07,39,9.90
2016,05,08,07,40,10.00
2016,05,08,07,41,10.00
2016,05,08,07,42,10.10
2016,05,08,07,43,10.10
2016,05,08,07,44,10.10
2016,05,08,07,45,10.20
2016,05,08,07,46,10.20
2016,05,08,07,47,10.20
2016,05,08,07,48,10.30
2016,05,08,07,49,10.30
2016,05,08,07,50,10.40
2016,05,08,07,51,10.50
2016,05,08,07,52,10.50
2016,05,08,07,53,10.60
2016,05,08,07,54,10.60
2016,05,08,07,55,10.70
2016,05,08,07,56,10.70
2016,05,08,07,57,10.80
2016,05,08,07,58,10.80
2016,05,08,07,59,10.90
2016,05,08,08,00,11.00
2016,05,08,08,01,11.00
2016,05,08,08,02,11.10
2016,05,08,08,03,11.10
2016,05,08,08,04,11.10
2016,05,08,08,05,11.20
2016,05,08,08,06,11.20
2016,05,08,08,07,11.20
2016,05,08,08,08,11.30
2016,05,08,08,09,11.30
2016,05,08,08,10,11.40
2016,05,08,08,11,11.40
2016,05,08,08,12,11.50
2016,05,08,08,13,11.50
2016,05,08,08,14,11.50
2016,05,08,08,15,11.60
2016,05,08,08,16,11.60
2016,05,08,08,17,11.60
2016,05,08,08,18,11.70
2016,05,08,08,19,11.70
2016,05,08,08,20,11.70
2016,05,08,08,21,11.80
2016,05,08,08,22,11.90
2016,05,08,08,23,11.90
2016,05,08,08,24,12.00
2016,05,08,08,25,12.10
2016,05,08,08,26,12.10
2016,05,08,08,27,12.10
2016,05,08,08,28,12.20
2016,05,08,08,29,12.20
2016,05,08,08,30,12.30
2016,05,08,08,31,12.30
2016,05,08,08,32,12.30
2016,05,08,08,33,12.30
2016,05,08,08,34,12.40
2016,05,08,08,35,12.50
2016,05,08,08,36,12.60
2016,05,08,08,37,12.70
2016,05,08,08,38,12.70
2016,05,08,08,39,12.80
2016,05,08,08,40,12.70
2016,05,08,08,41,12.70
2016,05,08,08,42,12.60
2016,05,08,08,43,12.60
2016,05,08,08,44,12.60
2016,05,08,08,45,12.60
2016,05,08,08,46,12.70
2016,05,08,08,47,12.70
2016,05,08,08,48,12.80
2016,05,08,08,49,12.90
2016,05,08,08,50,12.90
2016,05,08,08,51,13.00
2016,05,08,08,52,13.00
2016,05,08,08,53,13.10
2016,05,08,08,54,13.10
2016,05,08,08,55,13.10
2016,05,08,08,56,13.20
2016,05,08,08,57,13.20
2016,05,08,08,58,13.20
2016,05,08,08,59,13.20
2016,05,08,09,00,13.20
2016,05,08,09,01,13.10
2016,05,08,09,02,13.10
2016,05,08,09,03,13.10
2016,05,08,09,04,13.10
2016,05,08,09,05,13.10
2016,05,08,09,06,13.10
2016,05,08,09,07,13.10
2016,05,08,09,08,13.20
2016,05,08,09,09,13.20
2016,05,08,09,10,13.20
2016,05,08,09,11,13.20
2016,05,08,09,12,13.10
2016,05,08,09,13,13.10
2016,05,08,09,14,13.10
2016,05,08,09,15,13.10
2016,05,08,09,16,13.20
2016,05,08,09,17,13.20
2016,05,08,09,18,13.20
2016,05,08,09,19,13.30
2016,05,08,09,20,13.30
2016,05,08,09,21,13.40
2016,05,08,09,22,13.40
2016,05,08,09,23,13.40
2016,05,08,09,24,13.30
2016,05,08,09,25,13.30
2016,05,08,09,26,13.30
2016,05,08,09,27,13.30
2016,05,08,09,28,13.20
2016,05,08,09,29,13.20
2016,05,08,09,30,13.20
2016,05,08,09,31,13.10
2016,05,08,09,32,13.10
2016,05,08,09,33,13.10
2016,05,08,09,34,13.10
2016,05,08,09,35,13.00
2016,05,08,09,36,13.00
2016,05,08,09,37,12.90
2016,05,08,09,38,12.90
2016,05,08,09,39,12.90
2016,05,08,09,40,12.90
2016,05,08,09,41,13.00
2016,05,08,09,42,13.00
2016,05,08,09,43,13.10
2016,05,08,09,44,13.20
2016,05,08,09,45,13.20
2016,05,08,09,46,13.20
2016,05,08,09,47,13.20
2016,05,08,09,48,13.20
2016,05,08,09,49,13.10
2016,05,08,09,50,13.10
2016,05,08,09,51,13.10
2016,05,08,09,52,13.00
2016,05,08,09,53,13.00
2016,05,08,09,54,13.00
2016,05,08,09,55,13.00
2016,05,08,09,56,13.10
2016,05,08,09,57,13.20
2016,05,08,09,58,13.20
2016,05,08,09,59,13.30
2016,05,08,10,00,13.30
2016,05,08,10,01,13.30
2016,05,08,10,02,13.30
2016,05,08,10,03,13.30
2016,05,08,10,04,13.20
2016,05,08,10,05,13.20
2016,05,08,10,06,13.20
2016,05,08,10,07,13.10
2016,05,08,10,08,13.10
2016,05,08,10,09,13.10
2016,05,08,10,10,13.10
2016,05,08,10,11,13.00
2016,05,08,10,12,12.90
2016,05,08,10,13,12.90
2016,05,08,10,14,12.90
2016,05,08,10,15,12.90
2016,05,08,10,16,12.90
2016,05,08,10,17,12.90
2016,05,08,10,18,13.00
2016,05,08,10,19,13.00
2016,05,08,10,20,13.00
2016,05,08,10,21,13.10
2016,05,08,10,22,13.10
2016,05,08,10,23,13.20
2016,05,08,10,24,13.20
2016,05,08,10,25,13.30
2016,05,08,10,26,13.30
2016,05,08,10,27,13.30
2016,05,08,10,28,13.30
2016,05,08,10,29,13.40
2016,05,08,10,30,13.40
2016,05,08,10,31,13.40
2016,05,08,10,32,13.30
2016,05,08,10,33,13.30
2016,05,08,10,34,13.30
2016,05,08,10,35,13.30
2016,05,08,10,36,13.30
2016,05,08,10,37,13.30
2016,05,08,10,38,13.40
2016,05,08,10,39,13.40
2016,05,08,10,40,13.50
2016,05,08,10,41,13.60
2016,05,08,10,42,13.60
2016,05,08,10,43,13.60
2016,05,08,10,44,13.60
2016,05,08,10,45,13.60
2016,05,08,10,46,13.60
2016,05,08,10,47,13.70
2016,05,08,10,48,13.70
2016,05,08,10,49,13.70
2016,05,08,10,50,13.60
2016,05,08,10,51,13.70
2016,05,08,10,52,13.70
2016,05,08,10,53,13.70
2016,05,08,10,54,13.70
2016,05,08,10,55,13.80
2016,05,08,10,56,13.80
2016,05,08,10,57,13.90
2016,05,08,10,58,13.90
2016,05,08,10,59,13.90
2016,05,08,11,00,13.80
2016,05,08,11,01,13.80
2016,05,08,11,02,13.80
2016,05,08,11,03,13.80
2016,05,08,11,04,13.70
2016,05,08,11,05,13.70
2016,05,08,11,06,13.60
2016,05,08,11,07,13.50
2016,05,08,11,08,13.30
2016,05,08,11,09,13.30
2016,05,08,11,10,13.20
2016,05,08,11,11,13.20
2016,05,08,11,12,13.20
2016,05,08,11,13,13.30
2016,05,08,11,14,13.40
2016,05,08,11,15,13.40
2016,05,08,11,16,13.40
2016,05,08,11,17,13.30
2016,05,08,11,18,13.30
2016,05,08,11,19,13.30
2016,05,08,11,20,13.30
2016,05,08,11,21,13.40
2016,05,08,11,22,13.50
2016,05,08,11,23,13.50
2016,05,08,11,24,13.60
2016,05,08,11,25,13.60
2016,05,08,11,26,13.70
2016,05,08,11,27,13.70
2016,05,08,11,28,13.70
2016,05,08,11,29,13.70
2016,05,08,11,30,13.60
2016,05,08,11,31,13.60
2016,05,08,11,32,13.70
2016,05,08,11,33,13.70
2016,05,08,11,34,13.80
2016,05,08,11,35,13.80
2016,05,08,11,36,13.80
2016,05,08,11,37,13.80
2016,05,08,11,38,13.80
2016,05,08,11,39,13.70
2016,05,08,11,40,13.80
2016,05,08,11,41,13.80
2016,05,08,11,42,13.90
2016,05,08,11,43,14.10
2016,05,08,11,44,14.20
2016,05,08,11,45,14.20
2016,05,08,11,46,14.10
2016,05,08,11,47,14.10
2016,05,08,11,48,14.10
2016,05,08,11,49,14.00
2016,05,08,11,50,14.00
2016,05,08,11,51,13.90
2016,05,08,11,52,14.00
2016,05,08,11,53,14.00
2016,05,08,11,54,14.00
2016,05,08,11,55,14.10
2016,05,08,11,56,14.10
2016,05,08,11,57,14.10
2016,05,08,11,58,14.20
2016,05,08,11,59,14.20
2016,05,08,12,00,14.20
2016,05,08,12,01,14.20
2016,05,08,12,02,14.10
2016,05,08,12,03,14.00
2016,05,08,12,04,13.90
2016,05,08,12,05,13.80
2016,05,08,12,06,13.80
2016,05,08,12,07,13.80
2016,05,08,12,08,13.70
2016,05,08,12,09,13.80
2016,05,08,12,10,13.70
2016,05,08,12,11,13.70
2016,05,08,12,12,13.70
2016,05,08,12,13,13.70
2016,05,08,12,14,13.70
2016,05,08,12,15,13.70
2016,05,08,12,16,13.60
2016,05,08,12,17,13.60
2016,05,08,12,18,13.60
2016,05,08,12,19,13.60
2016,05,08,12,20,13.60
2016,05,08,12,21,13.70
2016,05,08,12,22,13.90
2016,05,08,12,23,14.00
2016,05,08,12,24,14.20
2016,05,08,12,25,14.30
2016,05,08,12,26,14.30
2016,05,08,12,27,14.40
2016,05,08,12,28,14.40
2016,05,08,12,29,14.40
2016,05,08,12,30,14.40
2016,05,08,12,31,14.60
2016,05,08,12,32,14.60
2016,05,08,12,33,14.70
2016,05,08,12,34,14.60
2016,05,08,12,35,14.60
2016,05,08,12,36,14.60
2016,05,08,12,37,14.60
2016,05,08,12,38,14.60
2016,05,08,12,39,14.60
2016,05,08,12,40,14.60
2016,05,08,12,41,14.60
2016,05,08,12,42,14.70
2016,05,08,12,43,14.60
2016,05,08,12,44,14.70
2016,05,08,12,45,14.50
2016,05,08,12,46,14.50
2016,05,08,12,47,14.40
2016,05,08,12,48,14.40
2016,05,08,12,49,14.40
2016,05,08,12,50,14.30
2016,05,08,12,51,14.30
2016,05,08,12,52,14.30
2016,05,08,12,53,14.30
2016,05,08,12,54,14.30
2016,05,08,12,55,14.30
2016,05,08,12,56,14.20
2016,05,08,12,57,14.20
2016,05,08,12,58,14.20
2016,05,08,12,59,14.20
2016,05,08,13,00,14.20
2016,05,08,13,01,14.30
2016,05,08,13,02,14.30
2016,05,08,13,03,14.30
2016,05,08,13,04,14.40
2016,05,08,13,05,14.50
2016,05,08,13,06,14.60
2016,05,08,13,07,14.60
2016,05,08,13,08,14.60
2016,05,08,13,09,14.60
2016,05,08,13,10,14.60
2016,05,08,13,11,14.70
2016,05,08,13,12,14.70
2016,05,08,13,13,14.70
2016,05,08,13,14,14.70
2016,05,08,13,15,14.80
2016,05,08,13,16,15.00
2016,05,08,13,17,15.00
2016,05,08,13,18,15.20
2016,05,08,13,19,15.40
2016,05,08,13,20,15.50
2016,05,08,13,21,15.50
2016,05,08,13,22,15.40
2016,05,08,13,23,15.20
2016,05,08,13,24,15.10
2016,05,08,13,25,15.20
2016,05,08,13,26,15.20
2016,05,08,13,27,15.20
2016,05,08,13,28,15.20
2016,05,08,13,29,15.20
2016,05,08,13,30,15.20
2016,05,08,13,31,15.20
2016,05,08,13,32,15.10
2016,05,08,13,33,15.10
2016,05,08,13,34,15.00
2016,05,08,13,35,15.10
2016,05,08,13,36,15.20
2016,05,08,13,37,15.30
2016,05,08,13,38,15.40
2016,05,08,13,39,15.50
2016,05,08,13,40,15.60
2016,05,08,13,41,15.70
2016,05,08,13,42,15.80
2016,05,08,13,43,15.70
2016,05,08,13,44,15.70
2016,05,08,13,45,15.70
2016,05,08,13,46,15.70
2016,05,08,13,47,15.50
2016,05,08,13,48,15.50
2016,05,08,13,49,15.50
2016,05,08,13,50,15.50
2016,05,08,13,51,15.50
2016,05,08,13,52,15.40
2016,05,08,13,53,15.40
2016,05,08,13,54,15.30
2016,05,08,13,55,15.20
2016,05,08,13,56,15.10
2016,05,08,13,57,15.10
2016,05,08,13,58,15.10
2016,05,08,13,59,15.10
2016,05,08,14,00,15.20
2016,05,08,14,01,15.30
2016,05,08,14,02,15.30
2016,05,08,14,03,15.30
2016,05,08,14,04,15.30
2016,05,08,14,05,15.30
2016,05,08,14,06,15.40
2016,05,08,14,07,15.40
2016,05,08,14,08,15.30
2016,05,08,14,09,15.30
2016,05,08,14,10,15.30
2016,05,08,14,11,15.30
2016,05,08,14,12,15.30
2016,05,08,14,13,15.20
2016,05,08,14,14,15.20
2016,05,08,14,15,15.30
2016,05,08,14,16,15.40
2016,05,08,14,17,15.50
2016,05,08,14,18,15.60
2016,05,08,14,19,15.80
2016,05,08,14,20,15.80
2016,05,08,14,21,15.80
2016,05,08,14,22,15.80
2016,05,08,14,23,15.80
2016,05,08,14,24,15.90
2016,05,08,14,25,16.10
2016,05,08,14,26,16.10
2016,05,08,14,27,16.20
2016,05,08,14,28,16.20
2016,05,08,14,29,16.20
2016,05,08,14,30,16.20
2016,05,08,14,31,16.20
2016,05,08,14,32,16.20
2016,05,08,14,33,16.10
2016,05,08,14,34,16.10
2016,05,08,14,35,16.10
2016,05,08,14,36,16.10
2016,05,08,14,37,16.10
2016,05,08,14,38,16.10
2016,05,08,14,39,16.10
2016,05,08,14,40,16.10
2016,05,08,14,41,16.10
2016,05,08,14,42,16.20
2016,05,08,14,43,16.30
2016,05,08,14,44,16.30
2016,05,08,14,45,16.40
2016,05,08,14,46,16.40
2016,05,08,14,47,16.40
2016,05,08,14,48,16.40
2016,05,08,14,49,16.50
2016,05,08,14,50,16.50
2016,05,08,14,51,16.60
2016,05,08,14,52,16.60
2016,05,08,14,53,16.60
2016,05,08,14,54,16.60
2016,05,08,14,55,16.70
2016,05,08,14,56,16.70
2016,05,08,14,57,16.70
2016,05,08,14,58,16.80
2016,05,08,14,59,16.80
2016,05,08,15,00,16.80
2016,05,08,15,01,16.80
2016,05,08,15,02,16.80
2016,05,08,15,03,16.80
2016,05,08,15,04,16.80
2016,05,08,15,05,16.80
2016,05,08,15,06,16.80
2016,05,08,15,07,16.80
2016,05,08,15,08,16.80
2016,05,08,15,09,16.80
2016,05,08,15,10,16.70
2016,05,08,15,11,16.60
2016,05,08,15,12,16.70
2016,05,08,15,13,16.60
2016,05,08,15,14,16.60
2016,05,08,15,15,16.60
2016,05,08,15,16,16.60
2016,05,08,15,17,16.60
2016,05,08,15,18,16.60
2016,05,08,15,19,16.60
2016,05,08,15,20,16.60
2016,05,08,15,21,16.60
2016,05,08,15,22,16.70
2016,05,08,15,23,16.70
2016,05,08,15,24,16.70
2016,05,08,15,25,16.70
2016,05,08,15,26,16.80
2016,05,08,15,27,16.80
2016,05,08,15,28,16.80
2016,05,08,15,29,16.80
2016,05,08,15,30,16.90
2016,05,08,15,31,16.90
2016,05,08,15,32,16.90
2016,05,08,15,33,16.90
2016,05,08,15,34,16.90
2016,05,08,15,35,16.90
2016,05,08,15,36,16.90
2016,05,08,15,37,16.90
2016,05,08,15,38,16.90
2016,05,08,15,39,16.90
2016,05,08,15,40,16.90
2016,05,08,15,41,16.90
2016,05,08,15,42,17.00
2016,05,08,15,43,17.00
2016,05,08,15,44,17.00
2016,05,08,15,45,17.00
2016,05,08,15,46,16.90
2016,05,08,15,47,16.90
2016,05,08,15,48,16.80
2016,05,08,15,49,16.80
2016,05,08,15,50,16.70
2016,05,08,15,51,16.70
2016,05,08,15,52,16.70
2016,05,08,15,53,16.60
2016,05,08,15,54,16.60
2016,05,08,15,55,16.70
2016,05,08,15,56,16.70
2016,05,08,15,57,16.80
2016,05,08,15,58,16.80
2016,05,08,15,59,16.80
2016,05,08,16,00,16.80
2016,05,08,16,01,16.80
2016,05,08,16,02,16.90
2016,05,08,16,03,16.90
2016,05,08,16,04,16.80
2016,05,08,16,05,16.80
2016,05,08,16,06,16.80
2016,05,08,16,07,16.90
2016,05,08,16,08,16.90
2016,05,08,16,09,17.00
2016,05,08,16,10,16.90
2016,05,08,16,11,17.00
2016,05,08,16,12,16.90
2016,05,08,16,13,16.80
2016,05,08,16,14,16.80
2016,05,08,16,15,16.90
2016,05,08,16,16,16.90
2016,05,08,16,17,16.90
2016,05,08,16,18,16.90
2016,05,08,16,19,16.90
2016,05,08,16,20,16.90
2016,05,08,16,21,16.90
2016,05,08,16,22,16.90
2016,05,08,16,23,16.90
2016,05,08,16,24,16.80
2016,05,08,16,25,16.80
2016,05,08,16,26,16.80
2016,05,08,16,27,16.70
2016,05,08,16,28,16.70
2016,05,08,16,29,16.60
2016,05,08,16,30,16.60
2016,05,08,16,31,16.70
2016,05,08,16,32,16.60
2016,05,08,16,33,16.50
2016,05,08,16,34,16.40
2016,05,08,16,35,16.40
2016,05,08,16,36,16.50
2016,05,08,16,37,16.60
2016,05,08,16,38,16.60
2016,05,08,16,39,16.60
2016,05,08,16,40,16.60
2016,05,08,16,41,16.70
2016,05,08,16,42,16.70
2016,05,08,16,43,16.70
2016,05,08,16,44,16.70
2016,05,08,16,45,16.70
2016,05,08,16,46,16.70
2016,05,08,16,47,16.70
2016,05,08,16,48,16.70
2016,05,08,16,49,16.70
2016,05,08,16,50,16.70
2016,05,08,16,51,16.80
2016,05,08,16,52,16.80
2016,05,08,16,53,16.80
2016,05,08,16,54,16.80
2016,05,08,16,55,16.80
2016,05,08,16,56,16.80
2016,05,08,16,57,16.70
2016,05,08,16,58,16.70
2016,05,08,16,59,16.70
2016,05,08,17,00,16.70
2016,05,08,17,01,16.70
2016,05,08,17,02,16.70
2016,05,08,17,03,16.80
2016,05,08,17,04,16.80
2016,05,08,17,05,16.80
2016,05,08,17,06,16.80
2016,05,08,17,07,16.80
2016,05,08,17,08,16.70
2016,05,08,17,09,16.60
2016,05,08,17,10,16.50
2016,05,08,17,11,16.50
2016,05,08,17,12,16.50
2016,05,08,17,13,16.50
2016,05,08,17,14,16.50
2016,05,08,17,15,16.40
2016,05,08,17,16,16.50
2016,05,08,17,17,16.50
2016,05,08,17,18,16.50
2016,05,08,17,19,16.60
2016,05,08,17,20,16.60
2016,05,08,17,21,16.50
2016,05,08,17,22,16.40
2016,05,08,17,23,16.40
2016,05,08,17,24,16.40
2016,05,08,17,25,16.40
2016,05,08,17,26,16.40
2016,05,08,17,27,16.50
2016,05,08,17,28,16.60
2016,05,08,17,29,16.60